When you browse on this site, cookies collect data to enhance your experience and personalize the content and advertising you see.
Visit our Privacy Policy to learn more. By continuing to use the site, you agree to this use of cookies and data.

Hourly Weather Jelgava

Today, 5 August, Wednesday

Time Temperature Precipitation Wind Pressure Humidity
00:00 +15°C° 0 mm 2 mps 758 mmHg 96%
01:00 +15°C° 0 mm 2 mps 759 mmHg 96%
02:00 +14°C° 0 mm 2 mps 759 mmHg 96%
03:00 +14°C° 0 mm 2 mps 759 mmHg 96%
04:00 +14°C° 0 mm 2 mps 760 mmHg 95%
05:00 +13°C° 0 mm 2 mps 760 mmHg 95%
06:00 +15°C° 0 mm 2 mps 760 mmHg 92%
07:00 +16°C° 0 mm 2 mps 761 mmHg 89%
08:00 +18°C° 0 mm 1 mps 761 mmHg 86%
09:00 +19°C° 0 mm 2 mps 762 mmHg 77%
10:00 +20°C° 0 mm 2 mps 762 mmHg 68%
11:00 +21°C° 0 mm 2 mps 763 mmHg 60%
12:00 +22°C° 0 mm 3 mps 763 mmHg 56%
13:00 +24°C° 0 mm 3 mps 763 mmHg 53%
14:00 +24°C° 0 mm 3 mps 763 mmHg 49%
15:00 +24°C° 0 mm 3 mps 764 mmHg 53%
16:00 +22°C° 0 mm 4 mps 764 mmHg 56%
17:00 +21°C° 0 mm 4 mps 764 mmHg 59%
18:00 +19°C° 0 mm 3 mps 765 mmHg 65%
19:00 +18°C° 0 mm 2 mps 765 mmHg 71%
20:00 +16°C° 0 mm 2 mps 765 mmHg 77%
21:00 +15°C° 0 mm 2 mps 765 mmHg 79%
22:00 +15°C° 0 mm 2 mps 766 mmHg 81%
23:00 +14°C° 0 mm 2 mps 766 mmHg 84%

Tomorrow, 6 August, Thursday

Time Temperature Precipitation Wind Pressure Humidity
00:00 +14°C° 0 mm 2 mps 766 mmHg 86%
01:00 +13°C° 0 mm 2 mps 766 mmHg 88%
02:00 +13°C° 0 mm 2 mps 767 mmHg 90%
03:00 +13°C° 0 mm 2 mps 767 mmHg 90%
04:00 +13°C° 0 mm 2 mps 767 mmHg 91%
05:00 +13°C° 0 mm 2 mps 767 mmHg 91%
06:00 +14°C° 0 mm 2 mps 767 mmHg 85%
07:00 +16°C° 0 mm 2 mps 768 mmHg 79%
08:00 +17°C° 0 mm 2 mps 768 mmHg 73%
09:00 +19°C° 0 mm 2 mps 768 mmHg 70%
10:00 +20°C° 0 mm 2 mps 768 mmHg 67%
11:00 +21°C° 0 mm 3 mps 769 mmHg 64%
12:00 +22°C° 0 mm 3 mps 769 mmHg 62%
13:00 +25°C° 0 mm 3 mps 769 mmHg 59%
14:00 +26°C° 0 mm 3 mps 769 mmHg 56%
15:00 +26°C° 0 mm 3 mps 769 mmHg 58%
16:00 +26°C° 0 mm 3 mps 769 mmHg 59%
17:00 +26°C° 0 mm 3 mps 769 mmHg 61%
18:00 +24°C° 0 mm 3 mps 769 mmHg 67%
19:00 +23°C° 0 mm 2 mps 769 mmHg 74%
20:00 +20°C° 0 mm 2 mps 769 mmHg 81%
21:00 +19°C° 0 mm 2 mps 769 mmHg 83%
22:00 +18°C° 0 mm 2 mps 769 mmHg 85%
23:00 +17°C° 0 mm 2 mps 770 mmHg 87%

Day after tomorrow, 7 August, Friday

Time Temperature Precipitation Wind Pressure Humidity
00:00 +16°C° 0 mm 1 mps 770 mmHg 87%
01:00 +16°C° 0 mm 1 mps 770 mmHg 87%
02:00 +15°C° 0 mm 1 mps 770 mmHg 87%
03:00 +15°C° 0 mm 1 mps 770 mmHg 86%
04:00 +15°C° 0 mm 1 mps 770 mmHg 86%
05:00 +15°C° 0 mm 1 mps 770 mmHg 86%
06:00 +16°C° 0 mm 1 mps 771 mmHg 80%
07:00 +19°C° 0 mm 1 mps 771 mmHg 74%
08:00 +21°C° 0 mm 1 mps 771 mmHg 68%
09:00 +23°C° 0 mm 1 mps 771 mmHg 63%
10:00 +24°C° 0 mm 1 mps 771 mmHg 58%
11:00 +26°C° 0 mm 1 mps 771 mmHg 54%
12:00 +27°C° 0 mm 1 mps 771 mmHg 52%
13:00 +28°C° 0 mm 1 mps 771 mmHg 50%
14:00 +28°C° 0 mm 1 mps 770 mmHg 48%
15:00 +28°C° 0 mm 1 mps 770 mmHg 50%
16:00 +28°C° 0 mm 1 mps 770 mmHg 51%
17:00 +28°C° 0 mm 1 mps 770 mmHg 52%
18:00 +26°C° 0 mm 1 mps 770 mmHg 59%
19:00 +24°C° 0 mm 1 mps 770 mmHg 66%
20:00 +22°C° 0 mm 1 mps 770 mmHg 73%
21:00 +21°C° 0 mm 1 mps 770 mmHg 75%
22:00 +20°C° 0 mm 1 mps 770 mmHg 77%
23:00 +19°C° 0 mm 1 mps 770 mmHg 79%

8 August, Saturday

Time Temperature Precipitation Wind Pressure Humidity
00:00 +19°C° 0 mm 1 mps 770 mmHg 79%
01:00 +18°C° 0 mm 1 mps 770 mmHg 79%
02:00 +16°C° 0 mm 0 mps 770 mmHg 80%
03:00 +16°C° 0 mm 0 mps 770 mmHg 80%
04:00 +16°C° 0 mm 0 mps 770 mmHg 81%
05:00 +15°C° 0 mm 0 mps 769 mmHg 81%
06:00 +17°C° 0 mm 0 mps 769 mmHg 77%
07:00 +19°C° 0 mm 0 mps 769 mmHg 72%
08:00 +20°C° 0 mm 0 mps 769 mmHg 68%
09:00 +22°C° 0 mm 0 mps 769 mmHg 64%
10:00 +25°C° 0 mm 1 mps 769 mmHg 60%
11:00 +26°C° 0 mm 1 mps 769 mmHg 56%
12:00 +27°C° 0 mm 1 mps 768 mmHg 53%
13:00 +28°C° 0 mm 1 mps 768 mmHg 51%
14:00 +28°C° 0 mm 1 mps 768 mmHg 48%
15:00 +28°C° 0 mm 1 mps 767 mmHg 50%
16:00 +27°C° 0 mm 2 mps 767 mmHg 52%
17:00 +27°C° 0 mm 2 mps 767 mmHg 54%
18:00 +25°C° 0 mm 2 mps 767 mmHg 60%
19:00 +23°C° 0 mm 2 mps 767 mmHg 66%
20:00 +20°C° 0 mm 2 mps 767 mmHg 71%
21:00 +20°C° 0 mm 1 mps 767 mmHg 71%
22:00 +20°C° 0 mm 1 mps 767 mmHg 72%
23:00 +19°C° 0 mm 1 mps 767 mmHg 72%

9 August, Sunday

Time Temperature Precipitation Wind Pressure Humidity
00:00 +19°C° 0 mm 1 mps 766 mmHg 74%
01:00 +18°C° 0 mm 1 mps 766 mmHg 76%
02:00 +18°C° 0 mm 1 mps 766 mmHg 79%
03:00 +18°C° 0 mm 1 mps 766 mmHg 81%
04:00 +18°C° 0 mm 1 mps 766 mmHg 83%
05:00 +18°C° 0 mm 1 mps 766 mmHg 85%
06:00 +19°C° 0 mm 1 mps 766 mmHg 81%
07:00 +21°C° 0 mm 1 mps 766 mmHg 77%
08:00 +23°C° 0 mm 1 mps 766 mmHg 72%
09:00 +24°C° 0 mm 1 mps 766 mmHg 67%
10:00 +26°C° 0 mm 1 mps 766 mmHg 62%
11:00 +27°C° 0 mm 1 mps 766 mmHg 57%
12:00 +28°C° 0 mm 2 mps 766 mmHg 55%
13:00 +28°C° 0 mm 2 mps 765 mmHg 53%
14:00 +29°C° 0 mm 2 mps 765 mmHg 51%
15:00 +28°C° 0 mm 3 mps 765 mmHg 54%
16:00 +28°C° 0 mm 3 mps 765 mmHg 56%
17:00 +27°C° 0 mm 3 mps 765 mmHg 59%
18:00 +25°C° 0 mm 3 mps 765 mmHg 66%
19:00 +22°C° 0 mm 3 mps 765 mmHg 73%
20:00 +20°C° 0 mm 2 mps 765 mmHg 80%
21:00 +20°C° 0 mm 2 mps 765 mmHg 81%
22:00 +19°C° 0 mm 2 mps 765 mmHg 82%
23:00 +19°C° 0 mm 2 mps 765 mmHg 83%

10 August, Monday

Time Temperature Precipitation Wind Pressure Humidity
00:00 +18°C° 0 mm 2 mps 765 mmHg 84%
01:00 +18°C° 0 mm 2 mps 765 mmHg 86%
02:00 +18°C° 0 mm 2 mps 765 mmHg 88%
03:00 +18°C° 0 mm 2 mps 765 mmHg 89%
04:00 +18°C° 0 mm 1 mps 765 mmHg 91%
05:00 +18°C° 0 mm 1 mps 765 mmHg 92%
06:00 +20°C° 0 mm 1 mps 766 mmHg 87%
07:00 +21°C° 0 mm 1 mps 766 mmHg 81%
08:00 +23°C° 0 mm 2 mps 766 mmHg 76%
09:00 +24°C° 0.1 mm 2 mps 766 mmHg 72%
10:00 +25°C° 0.1 mm 2 mps 766 mmHg 67%
11:00 +26°C° 0.1 mm 3 mps 766 mmHg 63%
12:00 +27°C° 0.2 mm 3 mps 766 mmHg 61%
13:00 +27°C° 0.2 mm 3 mps 765 mmHg 59%
14:00 +27°C° 0.2 mm 3 mps 765 mmHg 56%
15:00 +27°C° 0 mm 3 mps 765 mmHg 59%
16:00 +26°C° 0 mm 3 mps 765 mmHg 61%
17:00 +26°C° 0 mm 4 mps 765 mmHg 63%
18:00 +24°C° 0 mm 3 mps 765 mmHg 71%
19:00 +22°C° 0 mm 3 mps 765 mmHg 78%
20:00 +20°C° 0 mm 2 mps 765 mmHg 85%
21:00 +19°C° 0 mm 2 mps 766 mmHg 85%
22:00 +19°C° 0 mm 2 mps 766 mmHg 85%
23:00 +18°C° 0 mm 2 mps 766 mmHg 85%
Show more